This is the latest recevied weather packets stored in our database for station/object OK2ILA-10. If no packets are shown the sender has not sent any weather packets the latest 10 day(s).
| Time | Temp. | Humidity | Pressure | Rain* | Wind** | Luminosity | Snow |
|---|---|---|---|---|---|---|---|
| 1788584547 | 17.22° C | 62% | 1017.7 hPa | - | - | - | - |
| 1788584543 | 17.22° C | 62% | 1017.7 hPa | - | - | - | - |
| 1788583947 | 17.22° C | 63% | 1017.1 hPa | - | - | - | - |
| 1788583942 | 17.22° C | 63% | 1017.1 hPa | - | - | - | - |
| 1788583354 | 17.22° C | 65% | 1017 hPa | - | - | - | - |
| 1788583342 | 17.22° C | 65% | 1017 hPa | - | - | - | - |
| 1788582742 | 17.22° C | 64% | 1017.3 hPa | - | - | - | - |
| 1788582142 | 17.78° C | 67% | 1016.9 hPa | - | - | - | - |
| 1788581541 | 17.78° C | 65% | 1016.3 hPa | - | - | - | - |
| 1788580941 | 17.78° C | 64% | 1016.8 hPa | - | - | - | - |
| 1788580341 | 18.33° C | 63% | 1016.4 hPa | - | - | - | - |
| 1788579747 | 17.78° C | 63% | 1016.5 hPa | - | - | - | - |
| 1788579741 | 17.78° C | 63% | 1016.5 hPa | - | - | - | - |
| 1788579141 | 17.78° C | 66% | 1016.6 hPa | - | - | - | - |
| 1788578540 | 17.78° C | 66% | 1016.2 hPa | - | - | - | - |
| 1788577947 | 17.78° C | 67% | 1016.3 hPa | - | - | - | - |
| 1788577939 | 17.78° C | 67% | 1016.3 hPa | - | - | - | - |
| 1788577339 | 17.78° C | 67% | 1016 hPa | - | - | - | - |
| 1788576739 | 18.33° C | 67% | 1015.8 hPa | - | - | - | - |
| 1788576143 | 18.33° C | 67% | 1015.8 hPa | - | - | - | - |
| 1788576139 | 18.33° C | 67% | 1015.8 hPa | - | - | - | - |
| 1788575538 | 18.33° C | 67% | 1015.7 hPa | - | - | - | - |
| 1788574942 | 17.78° C | 67% | 1015.8 hPa | - | - | - | - |
| 1788574938 | 17.78° C | 67% | 1015.8 hPa | - | - | - | - |
| 1788574338 | 18.33° C | 66% | 1015.7 hPa | - | - | - | - |
* Rain since midnight (hover to see other rain measurements)
** Current wind speed in m/s (hover to see current wind gust speed)